Location: Bílinka
(49.3579°N, 14.3767°E)
Time: 12:49:14
(UTC+00:00)

Cosmos 2278 Rocket - Visible Passes

Search period start: 25 September 2023 00:00
Search period end: 05 October 2023 00:00
Orbit: 839 x 847 km, 71.0° (Epoch: 25 September)

Date Brightness Start Highest point End Pass type
(mag) Time Alt. Az. Time Alt. Az. Time Alt. Az.
25 Sep 2.1 19:00:13 10° NNW 19:05:56 75° ENE 19:07:41 45° SE visible
25 Sep 4.1 20:45:20 10° NW 20:49:24 20° W 20:49:32 20° WSW visible
26 Sep 2.1 18:45:33 10° NNW 18:51:15 72° ENE 18:53:36 36° SE visible
26 Sep 4.1 20:30:35 10° NW 20:34:44 21° W 20:35:28 21° WSW visible
27 Sep 2.2 18:30:52 10° NNW 18:36:33 69° ENE 18:39:35 28° SE visible
27 Sep 4.0 20:15:50 10° NW 20:20:05 22° W 20:21:27 20° WSW visible
28 Sep 2.2 18:16:11 10° NNW 18:21:52 67° ENE 18:25:39 21° SE visible
28 Sep 4.1 20:01:05 10° NW 20:05:27 23° WSW 20:07:31 19° SW visible
29 Sep 2.2 18:01:30 10° NNW 18:07:11 64° ENE 18:11:48 15° SE visible
29 Sep 4.1 19:46:20 10° NW 19:50:47 24° WSW 19:53:41 16° SW visible
30 Sep 2.3 17:46:50 10° NNW 17:52:29 62° ENE 17:58:04 10° SE visible
30 Sep 4.1 19:31:36 10° NW 19:36:07 25° WSW 19:39:57 13° SSW visible
01 Oct 2.3 17:32:10 10° NNW 17:37:47 60° ENE 17:43:23 10° SE visible
01 Oct 4.1 19:16:51 10° NW 19:21:28 26° WSW 19:26:04 10° SSW visible
02 Oct 2.3 17:17:29 10° NNW 17:23:06 58° ENE 17:28:40 10° SE visible
02 Oct 4.1 19:02:08 10° NW 19:06:49 27° WSW 19:11:29 10° SSW visible
03 Oct 2.4 17:02:48 10° NNW 17:08:24 55° NE 17:13:57 10° SE visible
03 Oct 4.0 18:47:23 10° NW 18:52:09 28° WSW 18:56:53 10° SSW visible
04 Oct 4.0 18:32:40 10° NW 18:37:30 29° WSW 18:42:18 10° SSW visible
